Portada
METAR-TAF:

METAR-TAF

Aeroports :

Kanoya, Japó

latitud: 31-22N, longitud: 130-50E, altitud: 65 m

Observació

L'informe es va fer fa 1 hora i 11 minuts, a les 07:49 UTC
Vent 12 kt del Oest/Nord-Oest
Temperatura 13°C
Humitat 54%
Pressió 1019 hPa
Visibilitat 10 km o més
Escasses núvols a una alçada de 3000 ft
Cel ennuvolat a una alçada de 23000 ft

METAR: RJFY 190749Z 29012KT 9999 FEW030 BKN230 13/04 Q1019 RMK 1CU030 A3011

Hora: 18:00 (09:00 UTC)


TAF: manca

Observacions i pronòstics meteorològics de més de 4000 aeroports (METAR i TAF).

Les estacions disponibles són els punts grocs i vermells al mapa.

Posi el ratolí al punt desitjat per veure el nom de l'estació.

Feu clic per veure les observacions i els pronòstics meteorològics.

Per canviar el mapa: feu clic els botons verds amb una creu de color negre per apropar; al botó verd amb un guió per allunyar la imatge; o en les fletxes verdes per a mapes adjacents.


METAR-TAF: